When you browse on this site, cookies collect data to enhance your experience and personalize the content and advertising you see.
Visit our Privacy Policy to learn more. By continuing to use the site, you agree to this use of cookies and data.
  • In Spain
  • List of Countries
  • For 7 days
  • Water Temperature
  • Satellite Maps
  • Weather Map
  • Weather Widgets
  • user-avatar
    Login

    Hourly Weather Salta

    Today, 23 July, Tuesday

    Time Temperature Precipitation Wind Pressure Humidity
    00:00 +10°C° 0 mm 1 mps 651 mmHg 43%
    01:00 +9°C° 0 mm 1 mps 650 mmHg 44%
    02:00 +9°C° 0 mm 1 mps 650 mmHg 43%
    03:00 +8°C° 0 mm 1 mps 650 mmHg 45%
    04:00 +7°C° 0 mm 0 mps 649 mmHg 46%
    05:00 +6°C° 0 mm 0 mps 649 mmHg 48%
    06:00 +6°C° 0 mm 0 mps 649 mmHg 47%
    07:00 +7°C° 0 mm 0 mps 650 mmHg 45%
    08:00 +8°C° 0 mm 0 mps 651 mmHg 42%
    09:00 +10°C° 0 mm 1 mps 651 mmHg 38%
    10:00 +12°C° 0 mm 2 mps 651 mmHg 33%
    11:00 +13°C° 0 mm 2 mps 652 mmHg 29%
    12:00 +14°C° 0 mm 2 mps 651 mmHg 29%
    13:00 +14°C° 0 mm 3 mps 651 mmHg 28%
    14:00 +14°C° 0 mm 3 mps 650 mmHg 28%
    15:00 +13°C° 0 mm 3 mps 650 mmHg 31%
    16:00 +12°C° 0 mm 3 mps 650 mmHg 35%
    17:00 +10°C° 0 mm 3 mps 650 mmHg 38%
    18:00 +8°C° 0 mm 3 mps 650 mmHg 43%
    19:00 +7°C° 0 mm 2 mps 650 mmHg 49%
    20:00 +5°C° 0 mm 2 mps 650 mmHg 54%
    21:00 +4°C° 0 mm 2 mps 651 mmHg 57%
    22:00 +4°C° 0 mm 1 mps 651 mmHg 59%
    23:00 +3°C° 0 mm 1 mps 651 mmHg 61%

    Tomorrow, 24 July, Wednesday

    Time Temperature Precipitation Wind Pressure Humidity
    00:00 +3°C° 0 mm 1 mps 651 mmHg 62%
    01:00 +3°C° 0 mm 1 mps 651 mmHg 62%
    02:00 +2°C° 0 mm 1 mps 651 mmHg 63%
    03:00 +2°C° 0 mm 1 mps 651 mmHg 63%
    04:00 +2°C° 0 mm 1 mps 651 mmHg 64%
    05:00 +2°C° 0 mm 1 mps 651 mmHg 65%
    06:00 +3°C° 0 mm 1 mps 652 mmHg 62%
    07:00 +3°C° 0 mm 1 mps 653 mmHg 60%
    08:00 +3°C° 0 mm 0 mps 653 mmHg 57%
    09:00 +6°C° 0 mm 1 mps 654 mmHg 50%
    10:00 +9°C° 0 mm 1 mps 654 mmHg 43%
    11:00 +10°C° 0 mm 2 mps 655 mmHg 35%
    12:00 +10°C° 0 mm 2 mps 654 mmHg 35%
    13:00 +10°C° 0 mm 2 mps 653 mmHg 35%
    14:00 +12°C° 0 mm 2 mps 652 mmHg 35%
    15:00 +10°C° 0 mm 2 mps 652 mmHg 38%
    16:00 +10°C° 0 mm 2 mps 652 mmHg 40%
    17:00 +9°C° 0 mm 2 mps 652 mmHg 43%
    18:00 +7°C° 0 mm 2 mps 652 mmHg 50%
    19:00 +7°C° 0 mm 1 mps 652 mmHg 57%
    20:00 +5°C° 0 mm 1 mps 652 mmHg 65%
    21:00 +5°C° 0 mm 1 mps 652 mmHg 68%
    22:00 +4°C° 0 mm 1 mps 652 mmHg 72%
    23:00 +2°C° 0 mm 0 mps 652 mmHg 75%

    Day after tomorrow, 25 July, Thursday

    Time Temperature Precipitation Wind Pressure Humidity
    00:00 +2°C° 0 mm 0 mps 652 mmHg 76%
    01:00 +2°C° 0 mm 0 mps 651 mmHg 78%
    02:00 +1°C° 0 mm 0 mps 651 mmHg 79%
    03:00 +1°C° 0 mm 0 mps 651 mmHg 79%
    04:00 +1°C° 0 mm 0 mps 650 mmHg 79%
    05:00 +2°C° 0 mm 1 mps 650 mmHg 78%
    06:00 +2°C° 0 mm 0 mps 651 mmHg 73%
    07:00 +3°C° 0 mm 0 mps 651 mmHg 68%
    08:00 +4°C° 0 mm 0 mps 652 mmHg 62%
    09:00 +8°C° 0 mm 1 mps 653 mmHg 53%
    10:00 +10°C° 0 mm 1 mps 653 mmHg 45%
    11:00 +13°C° 0 mm 1 mps 654 mmHg 36%
    12:00 +14°C° 0 mm 1 mps 654 mmHg 34%
    13:00 +15°C° 0 mm 2 mps 653 mmHg 32%
    14:00 +16°C° 0 mm 2 mps 653 mmHg 31%
    15:00 +15°C° 0 mm 2 mps 652 mmHg 33%
    16:00 +14°C° 0 mm 2 mps 652 mmHg 34%
    17:00 +14°C° 0 mm 2 mps 652 mmHg 36%
    18:00 +12°C° 0 mm 2 mps 652 mmHg 40%
    19:00 +10°C° 0 mm 1 mps 652 mmHg 45%
    20:00 +7°C° 0 mm 1 mps 652 mmHg 49%
    21:00 +7°C° 0 mm 1 mps 652 mmHg 50%
    22:00 +6°C° 0 mm 1 mps 652 mmHg 51%
    23:00 +6°C° 0 mm 1 mps 652 mmHg 52%

    26 July, Friday

    Time Temperature Precipitation Wind Pressure Humidity
    00:00 +6°C° 0 mm 1 mps 652 mmHg 52%
    01:00 +5°C° 0 mm 1 mps 651 mmHg 53%
    02:00 +5°C° 0 mm 1 mps 651 mmHg 53%
    03:00 +5°C° 0 mm 1 mps 651 mmHg 53%
    04:00 +5°C° 0 mm 1 mps 651 mmHg 52%
    05:00 +3°C° 0 mm 0 mps 651 mmHg 52%
    06:00 +5°C° 0 mm 1 mps 652 mmHg 48%
    07:00 +6°C° 0 mm 1 mps 653 mmHg 45%
    08:00 +8°C° 0 mm 1 mps 654 mmHg 41%
    09:00 +10°C° 0 mm 1 mps 655 mmHg 36%
    10:00 +13°C° 0 mm 1 mps 655 mmHg 31%
    11:00 +16°C° 0 mm 1 mps 656 mmHg 26%
    12:00 +17°C° 0 mm 2 mps 656 mmHg 26%
    13:00 +18°C° 0 mm 2 mps 655 mmHg 25%
    14:00 +18°C° 0 mm 2 mps 654 mmHg 25%
    15:00 +17°C° 0 mm 2 mps 654 mmHg 27%
    16:00 +17°C° 0 mm 2 mps 654 mmHg 29%
    17:00 +16°C° 0 mm 2 mps 654 mmHg 32%
    18:00 +14°C° 0 mm 2 mps 653 mmHg 38%
    19:00 +12°C° 0 mm 1 mps 653 mmHg 44%
    20:00 +9°C° 0 mm 1 mps 653 mmHg 50%
    21:00 +8°C° 0 mm 0 mps 653 mmHg 53%
    22:00 +7°C° 0 mm 0 mps 653 mmHg 55%
    23:00 +6°C° 0 mm 0 mps 653 mmHg 57%

    27 July, Saturday

    Time Temperature Precipitation Wind Pressure Humidity
    00:00 +6°C° 0 mm 0 mps 653 mmHg 59%
    01:00 +6°C° 0 mm 0 mps 653 mmHg 61%
    02:00 +5°C° 0 mm 0 mps 653 mmHg 63%
    03:00 +5°C° 0 mm 0 mps 653 mmHg 64%
    04:00 +5°C° 0 mm 0 mps 652 mmHg 66%
    05:00 +4°C° 0 mm 0 mps 652 mmHg 67%
    06:00 +5°C° 0 mm 0 mps 653 mmHg 63%
    07:00 +6°C° 0 mm 0 mps 653 mmHg 60%
    08:00 +7°C° 0 mm 0 mps 654 mmHg 57%
    09:00 +11°C° 0 mm 1 mps 654 mmHg 52%
    10:00 +13°C° 0 mm 1 mps 655 mmHg 46%
    11:00 +15°C° 0 mm 2 mps 655 mmHg 41%
    12:00 +16°C° 0 mm 2 mps 654 mmHg 40%
    13:00 +17°C° 0 mm 2 mps 654 mmHg 39%
    14:00 +17°C° 0 mm 3 mps 653 mmHg 38%
    15:00 +17°C° 0 mm 2 mps 653 mmHg 40%
    16:00 +16°C° 0 mm 2 mps 652 mmHg 43%
    17:00 +15°C° 0 mm 2 mps 652 mmHg 45%
    18:00 +14°C° 0 mm 1 mps 652 mmHg 51%
    19:00 +12°C° 0 mm 1 mps 652 mmHg 57%
    20:00 +10°C° 0 mm 1 mps 651 mmHg 64%
    21:00 +8°C° 0 mm 0 mps 651 mmHg 66%
    22:00 +7°C° 0 mm 0 mps 651 mmHg 69%
    23:00 +7°C° 0 mm 0 mps 651 mmHg 71%

    28 July, Sunday

    Time Temperature Precipitation Wind Pressure Humidity
    00:00 +6°C° 0 mm 0 mps 651 mmHg 72%
    01:00 +6°C° 0 mm 0 mps 651 mmHg 74%
    02:00 +6°C° 0 mm 0 mps 651 mmHg 75%
    03:00 +5°C° 0 mm 0 mps 650 mmHg 76%
    04:00 +5°C° 0 mm 0 mps 650 mmHg 76%
    05:00 +6°C° 0 mm 1 mps 650 mmHg 77%
    06:00 +7°C° 0 mm 1 mps 650 mmHg 73%
    07:00 +8°C° 0 mm 1 mps 651 mmHg 70%
    08:00 +8°C° 0 mm 1 mps 651 mmHg 66%
    09:00 +11°C° 0 mm 1 mps 652 mmHg 58%
    10:00 +14°C° 0 mm 1 mps 653 mmHg 50%
    11:00 +18°C° 0 mm 1 mps 653 mmHg 42%
    12:00 +19°C° 0 mm 1 mps 653 mmHg 39%
    13:00 +20°C° 0 mm 1 mps 652 mmHg 35%
    14:00 +21°C° 0 mm 2 mps 652 mmHg 32%
    15:00 +20°C° 0 mm 2 mps 651 mmHg 34%
    16:00 +19°C° 0 mm 2 mps 651 mmHg 37%
    17:00 +19°C° 0 mm 2 mps 651 mmHg 39%
    18:00 +16°C° 0 mm 1 mps 651 mmHg 45%
    19:00 +14°C° 0 mm 1 mps 650 mmHg 52%
    20:00 +12°C° 0 mm 1 mps 650 mmHg 58%
    21:00 +11°C° 0 mm 1 mps 650 mmHg 60%
    22:00 +11°C° 0 mm 1 mps 650 mmHg 62%
    23:00 +10°C° 0 mm 1 mps 650 mmHg 63%
    Show more